STARLINK-32943 (63023 NORAD) Tracking and Keplerian Element Data

This shows tracking and keplerian element data for the satellite.

Feedback or suggestion? Click here.




ElementValue
Catalog63023
NameSTARLINK-32943
Epoch Orbit4846
Epoch Day354.19107055
Epoch Year2025
RAAN64.8528
Inclination42.9961
Eccentricity0.0001362
Argument of Perigee75.8571
Mean Anonmoly284.2432
Mean Motion15.27609744
Decay Rate0.00021225
L11 63023U 25032U 25354.19107055 .00021225 00000+0 77789-3 0 9995
L22 63023 42.9961 64.8528 0001362 75.8571 284.2432 15.27609744 48467



Live tracking and technical data element details for STARLINK-32943 (NORAD 63023). STARLINK-32943 can be tracked NOW for your location showing map with azimuth and elevation plus other details from your city location.







IsCatalogInMostPopularTable: catalog: 63023, numindb: 2
Update: records affected: 1



GetName: 63023 STARLINK-32943

Hit Count: updated at: Sun, 08 Feb 2026 08:32:41 GMT